Time,TemperatureF,DewpointF,PressureIn,WindDirection,WindDirectionDegrees,WindSpeedMPH,WindSpeedGustMPH,Humidity,HourlyPrecipIn,Conditions,Clouds,dailyrainin,SoftwareType,DateUTC
2013-06-01 00:03:00,72.0,64.0,30.01,East,92,0.0,1.0,75,0.00,,,0.00,,2013-06-01 04:03:00,
2013-06-01 00:12:00,72.0,64.0,30.01,East,92,0.0,1.0,75,0.00,,,0.00,,2013-06-01 04:12:00,
2013-06-01 00:23:00,73.0,63.0,30.01,WSW,245,0.0,1.0,72,0.00,,,0.00,,2013-06-01 04:23:00,
2013-06-01 00:33:00,71.0,63.0,30.00,North,354,0.0,1.0,77,0.00,,,0.00,,2013-06-01 04:33:00,
2013-06-01 00:42:00,70.0,64.0,30.01,North,354,0.0,1.0,80,0.00,,,0.00,,2013-06-01 04:42:00,
2013-06-01 00:53:00,70.0,64.0,30.01,North,354,0.0,1.0,80,0.00,,,0.00,,2013-06-01 04:53:00,
2013-06-01 01:02:00,69.0,64.0,30.00,North,354,0.0,0.0,83,0.00,,,0.00,,2013-06-01 05:02:00,
2013-06-01 01:12:00,69.0,64.0,30.00,North,354,0.0,0.0,83,0.00,,,0.00,,2013-06-01 05:12:00,
2013-06-01 01:22:00,69.0,65.0,30.00,North,358,0.0,0.0,86,0.00,,,0.00,,2013-06-01 05:22:00,
2013-06-01 01:32:00,68.0,64.0,30.00,North,358,0.0,0.0,86,0.00,,,0.00,,2013-06-01 05:32:00,
2013-06-01 01:42:00,68.0,63.0,30.00,ENE,69,0.0,0.0,85,0.00,,,0.00,,2013-06-01 05:42:00,
2013-06-01 01:52:00,68.0,63.0,30.00,ENE,69,0.0,0.0,85,0.00,,,0.00,,2013-06-01 05:52:00,
2013-06-01 02:01:00,67.0,63.0,30.00,NE,55,0.0,0.0,87,0.00,,,0.00,,2013-06-01 06:01:00,
2013-06-01 02:12:00,67.0,63.0,30.00,NE,55,0.0,0.0,87,0.00,,,0.00,,2013-06-01 06:12:00,
2013-06-01 02:22:00,66.0,62.0,29.99,NE,54,0.0,0.0,88,0.00,,,0.00,,2013-06-01 06:22:00,
2013-06-01 02:32:00,66.0,63.0,30.00,NE,54,0.0,0.0,90,0.00,,,0.00,,2013-06-01 06:32:00,
2013-06-01 02:42:00,66.0,63.0,30.00,NE,54,0.0,0.0,90,0.00,,,0.00,,2013-06-01 06:42:00,
2013-06-01 02:52:00,66.0,63.0,29.99,ENE,57,0.0,0.0,90,0.00,,,0.00,,2013-06-01 06:52:00,
2013-06-01 03:01:00,65.0,62.0,29.99,NE,56,0.0,0.0,91,0.00,,,0.00,,2013-06-01 07:01:00,
2013-06-01 03:11:00,65.0,62.0,29.99,NE,56,0.0,0.0,91,0.00,,,0.00,,2013-06-01 07:11:00,
2013-06-01 03:22:00,65.0,63.0,29.99,NE,56,0.0,0.0,92,0.00,,,0.00,,2013-06-01 07:22:00,
2013-06-01 03:32:00,65.0,63.0,29.99,NE,49,0.0,0.0,93,0.00,,,0.00,,2013-06-01 07:32:00,
2013-06-01 03:42:00,64.0,62.0,29.99,NE,49,0.0,0.0,93,0.00,,,0.00,,2013-06-01 07:42:00,
2013-06-01 03:52:00,64.0,62.0,29.99,NE,49,0.0,0.0,93,0.00,,,0.00,,2013-06-01 07:52:00,
2013-06-01 04:02:00,64.0,62.0,29.99,NE,41,0.0,0.0,94,0.00,,,0.00,,2013-06-01 08:02:00,
2013-06-01 04:11:00,64.0,62.0,29.99,NE,41,0.0,0.0,94,0.00,,,0.00,,2013-06-01 08:11:00,
2013-06-01 04:22:00,64.0,62.0,29.98,NE,42,0.0,0.0,94,0.00,,,0.00,,2013-06-01 08:22:00,
2013-06-01 04:32:00,64.0,62.0,29.99,NE,46,0.0,0.0,94,0.00,,,0.00,,2013-06-01 08:32:00,
2013-06-01 04:42:00,64.0,62.0,29.99,ENE,74,1.0,2.0,94,0.00,,,0.00,,2013-06-01 08:42:00,
2013-06-01 04:52:00,64.0,62.0,29.99,ENE,74,1.0,2.0,94,0.00,,,0.00,,2013-06-01 08:52:00,
2013-06-01 05:02:00,64.0,62.0,29.99,SW,226,0.0,2.0,94,0.00,,,0.00,,2013-06-01 09:02:00,
2013-06-01 05:12:00,64.0,62.0,29.99,SW,226,0.0,2.0,94,0.00,,,0.00,,2013-06-01 09:12:00,
2013-06-01 05:22:00,63.0,61.0,29.99,NW,325,0.0,0.0,94,0.00,,,0.00,,2013-06-01 09:22:00,
2013-06-01 05:33:00,63.0,61.0,29.99,NNW,330,0.0,1.0,94,0.00,,,0.00,,2013-06-01 09:33:00,
2013-06-01 05:43:00,63.0,61.0,29.99,NNW,330,0.0,1.0,94,0.00,,,0.00,,2013-06-01 09:43:00,
2013-06-01 05:53:00,63.0,62.0,29.99,NNW,330,0.0,0.0,95,0.00,,,0.00,,2013-06-01 09:53:00,
2013-06-01 06:02:00,63.0,62.0,29.99,NNW,330,0.0,0.0,95,0.00,,,0.00,,2013-06-01 10:02:00,
2013-06-01 06:13:00,63.0,62.0,29.99,NNW,330,0.0,0.0,95,0.00,,,0.00,,2013-06-01 10:13:00,
2013-06-01 06:22:00,62.0,61.0,29.99,NNW,330,0.0,0.0,95,0.00,,,0.00,,2013-06-01 10:22:00,
2013-06-01 06:33:00,63.0,62.0,29.99,NNW,331,0.0,0.0,96,0.00,,,0.00,,2013-06-01 10:33:00,
2013-06-01 06:42:00,63.0,62.0,29.99,NNW,331,0.0,0.0,96,0.00,,,0.00,,2013-06-01 10:42:00,
2013-06-01 06:53:00,63.0,62.0,29.99,NNW,331,0.0,0.0,96,0.00,,,0.00,,2013-06-01 10:53:00,
2013-06-01 07:02:00,64.0,63.0,29.99,NNW,332,0.0,0.0,95,0.00,,,0.00,,2013-06-01 11:02:00,
2013-06-01 07:11:00,64.0,63.0,29.99,NNW,332,0.0,0.0,95,0.00,,,0.00,,2013-06-01 11:11:00,
2013-06-01 07:22:00,65.0,64.0,29.99,NNW,332,0.0,0.0,95,0.00,,,0.00,,2013-06-01 11:22:00,
2013-06-01 07:33:00,67.0,65.0,30.00,NNW,331,0.0,0.0,93,0.00,,,0.00,,2013-06-01 11:33:00,
2013-06-01 07:42:00,67.0,65.0,30.00,NNW,331,0.0,0.0,93,0.00,,,0.00,,2013-06-01 11:42:00,
2013-06-01 07:52:00,69.0,66.0,30.00,SE,133,1.0,2.0,90,0.00,,,0.00,,2013-06-01 11:52:00,
2013-06-01 08:01:00,72.0,68.0,30.00,WSW,258,0.0,4.0,87,0.00,,,0.00,,2013-06-01 12:01:00,
2013-06-01 08:12:00,72.0,68.0,30.00,WSW,258,0.0,4.0,87,0.00,,,0.00,,2013-06-01 12:12:00,
2013-06-01 08:22:00,73.0,68.0,30.00,WSW,237,1.0,8.0,83,0.00,,,0.00,,2013-06-01 12:22:00,
2013-06-01 08:32:00,75.0,68.0,30.00,WNW,295,2.0,8.0,79,0.00,,,0.00,,2013-06-01 12:32:00,
2013-06-01 08:42:00,75.0,68.0,30.00,WNW,295,2.0,8.0,79,0.00,,,0.00,,2013-06-01 12:42:00,
2013-06-01 08:52:00,76.0,68.0,30.01,SSW,207,4.0,10.0,76,0.00,,,0.00,,2013-06-01 12:52:00,
2013-06-01 09:01:00,76.0,67.0,29.99,WSW,238,2.0,8.0,75,0.00,,,0.00,,2013-06-01 13:01:00,
2013-06-01 09:12:00,76.0,67.0,29.99,WSW,238,2.0,8.0,75,0.00,,,0.00,,2013-06-01 13:12:00,
2013-06-01 09:22:00,77.0,68.0,30.00,WSW,253,4.0,8.0,73,0.00,,,0.00,,2013-06-01 13:22:00,
2013-06-01 09:32:00,78.0,68.0,29.99,West,268,2.0,7.0,72,0.00,,,0.00,,2013-06-01 13:32:00,
2013-06-01 09:42:00,78.0,68.0,29.99,West,268,2.0,7.0,72,0.00,,,0.00,,2013-06-01 13:42:00,
2013-06-01 09:52:00,79.0,68.0,29.99,WSW,247,5.0,10.0,68,0.00,,,0.00,,2013-06-01 13:52:00,
2013-06-01 10:02:00,80.0,68.0,29.98,SSW,192,2.0,8.0,68,0.00,,,0.00,,2013-06-01 14:02:00,
2013-06-01 10:11:00,80.0,68.0,29.98,SSW,192,2.0,8.0,68,0.00,,,0.00,,2013-06-01 14:11:00,
2013-06-01 10:21:00,82.0,69.0,29.98,East,98,2.0,6.0,65,0.00,,,0.00,,2013-06-01 14:21:00,
2013-06-01 10:32:00,83.0,69.0,29.98,North,354,1.0,6.0,63,0.00,,,0.00,,2013-06-01 14:32:00,
2013-06-01 10:42:00,83.0,69.0,29.98,North,354,1.0,6.0,63,0.00,,,0.00,,2013-06-01 14:42:00,
2013-06-01 10:52:00,84.0,69.0,29.97,SW,232,1.0,7.0,61,0.00,,,0.00,,2013-06-01 14:52:00,
2013-06-01 11:02:00,84.0,68.0,29.97,WSW,251,3.0,7.0,58,0.00,,,0.00,,2013-06-01 15:02:00,
2013-06-01 11:11:00,84.0,68.0,29.97,WSW,251,3.0,7.0,58,0.00,,,0.00,,2013-06-01 15:11:00,
2013-06-01 11:22:00,85.0,67.0,29.97,West,259,4.0,8.0,55,0.00,,,0.00,,2013-06-01 15:22:00,
2013-06-01 11:33:00,85.0,68.0,29.97,SW,224,3.0,9.0,56,0.00,,,0.00,,2013-06-01 15:33:00,
2013-06-01 11:43:00,85.0,68.0,29.97,SW,224,3.0,9.0,56,0.00,,,0.00,,2013-06-01 15:43:00,
2013-06-01 11:54:00,86.0,67.0,29.97,WNW,286,4.0,11.0,54,0.00,,,0.00,,2013-06-01 15:54:00,
2013-06-01 12:03:00,87.0,67.0,29.96,NW,309,3.0,12.0,51,0.00,,,0.00,,2013-06-01 16:03:00,
2013-06-01 12:12:00,87.0,67.0,29.96,NW,309,3.0,12.0,51,0.00,,,0.00,,2013-06-01 16:12:00,
2013-06-01 12:23:00,86.0,66.0,29.96,West,278,6.0,13.0,52,0.00,,,0.00,,2013-06-01 16:23:00,
2013-06-01 12:33:00,87.0,67.0,29.96,West,265,8.0,14.0,51,0.00,,,0.00,,2013-06-01 16:33:00,
2013-06-01 12:42:00,87.0,67.0,29.96,West,265,8.0,14.0,51,0.00,,,0.00,,2013-06-01 16:42:00,
2013-06-01 12:53:00,87.0,66.0,29.96,West,275,5.0,13.0,50,0.00,,,0.00,,2013-06-01 16:53:00,
2013-06-01 13:02:00,88.0,66.0,29.95,SW,227,1.0,14.0,48,0.00,,,0.00,,2013-06-01 17:02:00,
2013-06-01 13:12:00,88.0,66.0,29.95,SW,227,1.0,14.0,48,0.00,,,0.00,,2013-06-01 17:12:00,
2013-06-01 13:22:00,88.0,66.0,29.94,SW,229,4.0,14.0,49,0.00,,,0.00,,2013-06-01 17:22:00,
2013-06-01 13:32:00,88.0,65.0,29.93,West,280,6.0,15.0,47,0.00,,,0.00,,2013-06-01 17:32:00,
2013-06-01 13:42:00,88.0,65.0,29.93,West,280,6.0,15.0,47,0.00,,,0.00,,2013-06-01 17:42:00,
2013-06-01 13:52:00,89.0,65.0,29.93,SSE,155,7.0,13.0,46,0.00,,,0.00,,2013-06-01 17:52:00,
2013-06-01 14:01:00,89.0,67.0,29.93,WSW,251,5.0,12.0,48,0.00,,,0.00,,2013-06-01 18:01:00,
2013-06-01 14:12:00,89.0,67.0,29.93,WSW,251,5.0,12.0,48,0.00,,,0.00,,2013-06-01 18:12:00,
2013-06-01 14:22:00,89.0,65.0,29.93,WSW,249,4.0,13.0,46,0.00,,,0.00,,2013-06-01 18:22:00,
2013-06-01 14:32:00,89.0,65.0,29.92,WSW,245,3.0,11.0,46,0.00,,,0.00,,2013-06-01 18:32:00,
2013-06-01 14:42:00,89.0,65.0,29.92,WSW,245,3.0,11.0,46,0.00,,,0.00,,2013-06-01 18:42:00,
2013-06-01 14:52:00,89.0,66.0,29.92,WSW,242,5.0,15.0,47,0.00,,,0.00,,2013-06-01 18:52:00,
2013-06-01 15:02:00,89.0,67.0,29.91,WNW,288,3.0,11.0,48,0.00,,,0.00,,2013-06-01 19:02:00,
2013-06-01 15:12:00,89.0,67.0,29.91,WNW,288,3.0,11.0,48,0.00,,,0.00,,2013-06-01 19:12:00,
2013-06-01 15:21:00,89.0,67.0,29.91,WNW,288,5.0,13.0,48,0.00,,,0.00,,2013-06-01 19:21:00,
2013-06-01 15:32:00,90.0,67.0,29.91,WSW,238,6.0,13.0,47,0.00,,,0.00,,2013-06-01 19:32:00,
2013-06-01 15:42:00,90.0,67.0,29.91,WSW,238,6.0,13.0,47,0.00,,,0.00,,2013-06-01 19:42:00,
2013-06-01 15:52:00,90.0,67.0,29.90,NNW,347,6.0,14.0,47,0.00,,,0.00,,2013-06-01 19:52:00,
2013-06-01 16:02:00,89.0,67.0,29.91,SW,233,8.0,15.0,48,0.00,,,0.00,,2013-06-01 20:02:00,
2013-06-01 16:12:00,89.0,67.0,29.91,SW,233,8.0,15.0,48,0.00,,,0.00,,2013-06-01 20:12:00,
2013-06-01 16:21:00,90.0,68.0,29.91,SSW,208,4.0,14.0,49,0.00,,,0.00,,2013-06-01 20:21:00,
2013-06-01 16:32:00,90.0,68.0,29.91,SW,227,4.0,14.0,48,0.00,,,0.00,,2013-06-01 20:32:00,
2013-06-01 16:42:00,90.0,68.0,29.91,SW,227,4.0,14.0,48,0.00,,,0.00,,2013-06-01 20:42:00,
2013-06-01 16:52:00,89.0,67.0,29.90,SW,228,4.0,14.0,48,0.00,,,0.00,,2013-06-01 20:52:00,
2013-06-01 17:01:00,90.0,68.0,29.90,NW,311,6.0,12.0,48,0.00,,,0.00,,2013-06-01 21:01:00,
2013-06-01 17:12:00,90.0,68.0,29.90,NW,311,6.0,12.0,48,0.00,,,0.00,,2013-06-01 21:12:00,
2013-06-01 17:22:00,88.0,66.0,29.90,WSW,243,5.0,13.0,49,0.00,,,0.00,,2013-06-01 21:22:00,
2013-06-01 17:33:00,87.0,66.0,29.89,West,266,3.0,14.0,50,0.00,,,0.00,,2013-06-01 21:33:00,
2013-06-01 17:43:00,87.0,66.0,29.89,West,266,3.0,14.0,50,0.00,,,0.00,,2013-06-01 21:43:00,
2013-06-01 17:53:00,87.0,67.0,29.89,SW,226,3.0,6.0,51,0.00,,,0.00,,2013-06-01 21:53:00,
2013-06-01 18:03:00,86.0,67.0,29.89,SW,224,0.0,5.0,53,0.00,,,0.00,,2013-06-01 22:03:00,
2013-06-01 18:12:00,86.0,67.0,29.89,SW,224,0.0,5.0,53,0.00,,,0.00,,2013-06-01 22:12:00,
2013-06-01 18:23:00,86.0,67.0,29.88,WSW,258,2.0,6.0,53,0.00,,,0.00,,2013-06-01 22:23:00,
2013-06-01 18:33:00,86.0,67.0,29.88,West,263,1.0,5.0,54,0.00,,,0.00,,2013-06-01 22:33:00,
2013-06-01 18:42:00,86.0,67.0,29.88,West,263,1.0,5.0,54,0.00,,,0.00,,2013-06-01 22:42:00,
2013-06-01 18:53:00,86.0,67.0,29.88,WSW,254,0.0,4.0,54,0.00,,,0.00,,2013-06-01 22:53:00,
2013-06-01 19:02:00,86.0,67.0,29.88,West,278,2.0,5.0,53,0.00,,,0.00,,2013-06-01 23:02:00,
2013-06-01 19:12:00,86.0,67.0,29.88,West,278,2.0,5.0,53,0.00,,,0.00,,2013-06-01 23:12:00,
2013-06-01 19:22:00,87.0,67.0,29.88,SE,131,3.0,7.0,51,0.00,,,0.00,,2013-06-01 23:22:00,
2013-06-01 19:32:00,86.0,66.0,29.88,SW,233,2.0,4.0,51,0.00,,,0.00,,2013-06-01 23:32:00,
2013-06-01 19:42:00,86.0,66.0,29.88,SW,233,2.0,4.0,51,0.00,,,0.00,,2013-06-01 23:42:00,
2013-06-01 19:52:00,86.0,66.0,29.89,WSW,237,1.0,4.0,51,0.00,,,0.00,,2013-06-01 23:52:00,
2013-06-01 20:02:00,85.0,66.0,29.89,WSW,254,0.0,3.0,53,0.00,,,0.00,,2013-06-02 00:02:00,
2013-06-01 20:11:00,85.0,66.0,29.89,WSW,254,0.0,3.0,53,0.00,,,0.00,,2013-06-02 00:11:00,
2013-06-01 20:22:00,84.0,66.0,29.89,WSW,240,0.0,3.0,54,0.00,,,0.00,,2013-06-02 00:22:00,
2013-06-01 20:32:00,83.0,66.0,29.89,West,271,0.0,1.0,57,0.00,,,0.00,,2013-06-02 00:32:00,
2013-06-01 20:42:00,83.0,66.0,29.89,West,271,0.0,1.0,57,0.00,,,0.00,,2013-06-02 00:42:00,
2013-06-01 20:52:00,82.0,67.0,29.89,SW,230,0.0,3.0,61,0.00,,,0.00,,2013-06-02 00:52:00,
2013-06-01 21:01:00,81.0,65.0,29.89,WSW,239,0.0,1.0,59,0.00,,,0.00,,2013-06-02 01:01:00,
2013-06-01 21:11:00,81.0,65.0,29.89,WSW,239,0.0,1.0,59,0.00,,,0.00,,2013-06-02 01:11:00,
2013-06-01 21:21:00,80.0,66.0,29.89,SW,215,0.0,0.0,63,0.00,,,0.00,,2013-06-02 01:21:00,
2013-06-01 21:32:00,79.0,65.0,29.89,SW,214,0.0,1.0,63,0.00,,,0.00,,2013-06-02 01:32:00,
2013-06-01 21:42:00,79.0,65.0,29.89,SW,214,0.0,1.0,63,0.00,,,0.00,,2013-06-02 01:42:00,
2013-06-01 21:52:00,79.0,66.0,29.90,SE,127,0.0,1.0,64,0.00,,,0.00,,2013-06-02 01:52:00,
2013-06-01 22:02:00,79.0,66.0,29.90,SE,131,0.0,2.0,64,0.00,,,0.00,,2013-06-02 02:02:00,
2013-06-01 22:12:00,79.0,66.0,29.90,SE,131,0.0,2.0,64,0.00,,,0.00,,2013-06-02 02:12:00,
2013-06-01 22:21:00,78.0,65.0,29.90,SW,216,0.0,1.0,65,0.00,,,0.00,,2013-06-02 02:21:00,
2013-06-01 22:32:00,78.0,66.0,29.90,WSW,242,0.0,3.0,67,0.00,,,0.00,,2013-06-02 02:32:00,
2013-06-01 22:42:00,78.0,66.0,29.90,WSW,242,0.0,3.0,67,0.00,,,0.00,,2013-06-02 02:42:00,
2013-06-01 22:52:00,78.0,67.0,29.90,West,275,0.0,3.0,69,0.00,,,0.00,,2013-06-02 02:52:00,
2013-06-01 23:02:00,77.0,67.0,29.90,West,262,0.0,2.0,71,0.00,,,0.00,,2013-06-02 03:02:00,
2013-06-01 23:11:00,77.0,67.0,29.90,West,262,0.0,2.0,71,0.00,,,0.00,,2013-06-02 03:11:00,
2013-06-01 23:21:00,77.0,67.0,29.90,South,171,0.0,1.0,72,0.00,,,0.00,,2013-06-02 03:21:00,
2013-06-01 23:33:00,76.0,67.0,29.90,South,171,0.0,0.0,74,0.00,,,0.00,,2013-06-02 03:33:00,
2013-06-01 23:43:00,76.0,67.0,29.90,South,171,0.0,0.0,74,0.00,,,0.00,,2013-06-02 03:43:00,
2013-06-01 23:53:00,75.0,67.0,29.90,SSE,153,0.0,0.0,76,0.00,,,0.00,,2013-06-02 03:53:00,